Flag for Germany Weather past 2 weeks in Oer-Erkenschwick, North Rhine-Westphalia, Germany

Now
50 °F

Passing clouds.


Feels Like: 47 °F
Forecast: 50 / 74 °F
Wind: 7 mph from South

Location: Dortmund / Wickede

Current Time: Jul 31, 2015 at 7:45:38 AM

Latest Report: Jul 31, 2015 at 7:20 AM


Visibility: N/A

Pressure: 30.12 "Hg

Humidity: 82%

Dew point: 45 °F

Location of Oer-ErkenschwickLocation

Historic Weather in Oer-Erkenschwick — Graph

°F

Oer-Erkenschwick temperature yesterday

Maximum temperature yesterday: 63 °F (at 12:20 PM)
Minimum temperature yesterday: 50 °F (at 5:20 AM)
Average temperature yesterday: 58 °F

Past Weeks' High & Low Weather Summary

 TemperatureHumidityPressure
High86 °F (Jul 17, 1:50 PM)88% (Jul 16, 6:20 AM)30.12 "Hg (Jul 16, 6:20 AM)
Low45 °F (Jul 31, 5:20 AM)27% (Jul 17, 3:20 PM)29.50 "Hg (Jul 25, 7:50 AM)
Average65 °F65%29.87 "Hg
* Reported Jul 16 6:20 AM — Jul 31 6:50 AM, Oer-Erkenschwick, Weather by CustomWeather, © 2015

Note: Actual official high and low records may vary slightly from our data, if they occured in-between our weather recording intervals... More about our weather records

Advertising

Oer-Erkenschwick weather history for previous 24 hours

 ConditionsComfort  
Time TempWeatherWind HumidityBarometerVisibility
6:50 AM
Fri, Jul 31
46 °FClear.7 mph87%30.12 "Hg10 mi
6:20 AM45 °FClear.7 mph87%30.09 "Hg10 mi
5:50 AM45 °FPassing clouds.7 mph87%30.09 "HgN/A
5:20 AM45 °FClear.7 mph87%30.09 "Hg10 mi
10:50 PM
Thu, Jul 30
54 °FClear.7 mph77%30.07 "Hg10 mi
10:20 PM55 °FScattered clouds.3 mph77%30.07 "HgN/A
9:50 PM55 °FSunny.7 mph72%30.04 "Hg10 mi
9:20 PM57 °FPassing clouds.6 mph67%30.04 "HgN/A
8:50 PM57 °FScattered clouds.6 mph67%30.04 "HgN/A
8:20 PM59 °FSunny.9 mph59%30.04 "Hg10 mi
7:50 PM59 °FScattered clouds.9 mph63%30.01 "HgN/A
7:20 PM61 °FPartly sunny.8 mph55%30.01 "HgN/A
6:50 PM59 °FPartly sunny.8 mph63%30.01 "HgN/A
6:20 PM61 °FPartly sunny.7 mph59%30.01 "HgN/A
5:50 PM63 °FPassing clouds.9 mph59%30.01 "HgN/A
5:20 PM63 °FPassing clouds.7 mph59%30.01 "HgN/A
4:50 PM59 °FPassing clouds.9 mph63%30.01 "HgN/A
4:20 PM59 °FScattered showers. Scattered clouds.9 mph68%30.01 "HgN/A
3:50 PM55 °FSprinkles. Scattered clouds.10 mph72%29.98 "HgN/A
3:20 PM57 °FScattered showers. Partly sunny.14 mph67%29.98 "HgN/A
2:50 PM59 °FScattered showers. Partly sunny.12 mph68%29.98 "HgN/A
2:20 PM57 °FScattered showers. Partly sunny.14 mph67%29.98 "HgN/A
1:50 PM59 °FScattered showers. Partly sunny.20 mph59%29.98 "HgN/A
1:20 PM63 °FPartly sunny.13 mph52%29.95 "HgN/A
12:50 PM63 °FScattered clouds.12 mph52%29.95 "HgN/A
12:20 PM63 °FPartly sunny.15 mph56%29.95 "HgN/A
11:50 AM61 °FPartly sunny.10 mph55%29.95 "HgN/A
11:20 AM61 °FScattered clouds.13 mph59%29.95 "HgN/A
10:20 AM59 °FScattered clouds.12 mph63%29.95 "HgN/A
9:50 AM59 °FScattered clouds.12 mph68%29.95 "HgN/A
9:20 AM57 °FScattered clouds.10 mph72%29.95 "HgN/A
8:50 AM55 °FScattered clouds.10 mph77%29.95 "HgN/A
8:20 AM55 °FSunny.10 mph77%29.92 "Hg10 mi
7:50 AM54 °FSunny.9 mph82%29.92 "Hg10 mi
7:20 AM54 °FSunny.8 mph82%29.92 "Hg10 mi
Weather by CustomWeather, © 2015

See weather overviewHow to use our weather pages